Content
SEND FEEDBACK

Daily
Averages
Monthly
Summary
United States of America

ASHEVILLE, NORTH CAROLINA


Home > North America > United States > North Carolina
Elevation: 2240 feet     Latitude: 35 36N     Longitude: 082 32W

WEATHER
 
SELECT A DAY
Number of Records: 225,663;   Date Range: 1/1/95 - 7/23/14
 
SHARE

PRINT THIS DATA

[ ← Previous Day ]
WEATHER ALMANAC - MAY 1, 2013
[ Next Day → ]
[ °C ]   °F
Weather ElementAverageHighLow
Temperature58.9 °F64 °F (4:54 pm)57 °F (2:54 am)
Dewpoint51 °F54 °F (3:54 am)48.2 °F (12:45 pm)
Humidity75.6 %89 % (3:54 am)59 % (12:45 pm)
Barometer30.22 in30.28 in (10:54 am)30.15 in (4:54 am)
Wind Speed3 mph8.1 mph (12:45 pm)
Weather ElementAverage
Visibility10 mi
Wind DirectionENE (61.6 °)

Weather ElementTotal
Precipitation---
Heating Degree Days4.5 (Base 65)
Growing Degree Days10.5 (Base 50)
Averaged from 32 records on May 1, 2013
WEATHER CONDITIONS BREAKOUT
WIND DIRECTION BREAKOUT
WEATHER BY HOUR - MAY 1, 2013
[ °C ]   °F
Local TimeTemperatureDewpointHumidityBarometerVisibilityWind DirectionWind SpeedGust SpeedPrecipitationEventsConditions
1:54 AM57.9 °F53.1 °F84 %30.16 in10.0 miSSE (150°)3.5 mphOvercast
2:54 AM57.0 °F53.1 °F87 %30.17 in10.0 miSouth (170°)4.6 mphOvercast
3:51 AM57.2 °F53.6 °F88 %30.21 in10.0 miSouth (170°)3.5 mphOvercast
3:54 AM57.0 °F54.0 °F89 %30.16 in10.0 miSouth (170°)4.6 mphOvercast
4:14 AM57.2 °F53.6 °F88 %30.20 in10.0 miSouth (170°)3.5 mphOvercast
4:54 AM57.0 °F54.0 °F89 %30.15 in10.0 miSouth (180°)3.5 mphOvercast
5:01 AM57.2 °F53.6 °F88 %30.21 in10.0 miCalmOvercast
5:24 AM57.2 °F53.6 °F88 %30.20 in10.0 miCalmOvercast
5:54 AM57.2 °F51.8 °F82 %30.21 in10.0 miCalmOvercast
6:07 AM57.2 °F51.8 °F82 %30.21 in10.0 miCalmOvercast
6:54 AM57.0 °F50.0 °F77 %30.19 in10.0 miCalmOvercast
7:24 AM57.2 °F50.0 °F77 %30.24 in10.0 miCalmOvercast
7:54 AM57.0 °F50.0 °F77 %30.20 in10.0 miCalmOvercast
8:54 AM57.0 °F50.0 °F77 %30.22 in10.0 miENE (60°)4.6 mphOvercast
9:54 AM57.0 °F48.9 °F74 %30.25 in10.0 miCalmOvercast
10:54 AM57.0 °F48.9 °F74 %30.28 in10.0 miSE (130°)3.5 mphOvercast
11:54 AM59.0 °F48.9 °F69 %30.27 in10.0 miVariable4.6 mphOvercast
12:45 PM62.6 °F48.2 °F59 %30.27 in10.0 miESE (120°)8.1 mphOvercast
12:54 PM62.1 °F48.9 °F62 %30.23 in10.0 miESE (120°)6.9 mphOvercast
1:54 PM62.1 °F48.9 °F62 %30.23 in10.0 miESE (120°)5.8 mphOvercast
2:54 PM62.1 °F48.9 °F62 %30.24 in10.0 miVariable3.5 mphOvercast
3:54 PM63.0 °F50.0 °F63 %30.22 in10.0 miNorth (10°)3.5 mphOvercast
4:54 PM64.0 °F50.0 °F60 %30.21 in10.0 miCalmOvercast
5:54 PM62.1 °F50.0 °F65 %30.21 in10.0 miEast (90°)3.5 mphOvercast
6:54 PM60.8 °F50.0 °F68 %30.25 in10.0 miESE (110°)4.6 mphOvercast
7:54 PM60.1 °F51.1 °F72 %30.22 in10.0 miVariable4.6 mphOvercast
8:28 PM60.8 °F51.8 °F72 %30.26 in10.0 miVariable4.6 mphOvercast
8:54 PM59.0 °F51.1 °F75 %30.23 in10.0 miEast (100°)4.6 mphOvercast
9:10 PM59.0 °F51.8 °F77 %30.27 in10.0 miCalmOvercast
9:54 PM59.0 °F51.1 °F75 %30.25 in10.0 miEast (100°)4.6 mphOvercast
10:54 PM57.9 °F51.1 °F78 %30.27 in10.0 miVariable3.5 mphOvercast
11:54 PM57.9 °F51.1 °F78 %30.25 in10.0 miVariable3.5 mphOvercast
Hourly data recorded from KAVL, located miles away from Asheville, North Carolina







STORIES FROM OUR PARTNERS